Theta_e
293 293 293 293 293 293 293 293 292 292 291 292 293 294 294 293 291 292 292 292 292 292 292 294 295 295 295 297 297 296 296 296 296 296 296 296 296 296 298 300 300 300 300
293 293 293 293 293 293 294 293 293 293 292 292 292 294 294 294 292 291 292 291 291 291 292 293 294 294 294 296 296 297 297 296 296 294 295 296 296 296 296 298 299 300 299
293 293 292 293 293 294 294 294 293 293 293 293 292 293 295 294 292 291 291 290 290 290 290 292 293 293 295 296 296 297 297 296 296 296 296 295 295 296 296 297 297 298 300
293 293 293 292 293 294 294 294 294 294 293 293 293 292 294 295 293 292 291 291 290 290 290 291 294 293 294 296 295 296 297 297 297 296 296 294 294 294 295 296 296 297 297
293 293 293 292 292 293 294 294 294 294 294 293 293 293 292 295 296 293 291 291 290 290 290 290 292 293 293 294 296 295 296 296 296 297 296 295 295 294 294 293 294 295 296
293 293 293 292 292 292 293 293 293 294 293 293 292 293 292 294 298 295 293 291 290 290 290 291 292 292 292 291 293 294 296 295 294 295 294 295 294 294 293 294 293 294 290
293 293 293 292 291 292 292 292 292 293 293 293 292 292 291 294 297 297 294 292 291 290 291 291 292 293 293 290 291 290 291 293 295 292 292 293 293 293 293 292 292 292 293
293 293 293 292 291 291 291 290 291 291 291 292 291 290 290 293 295 296 293 292 291 291 291 291 292 294 295 293 292 291 290 290 291 291 291 291 291 293 291 291 291 290 290
293 293 293 292 291 290 289 289 289 289 290 290 290 290 291 292 294 294 294 292 291 291 291 291 292 293 295 294 292 291 291 290 290 290 291 292 293 292 292 291 289 289 290
293 293 293 292 292 291 290 289 289 290 290 290 290 291 291 291 293 295 295 293 293 290 291 291 292 293 293 294 293 293 292 291 290 289 289 289 289 289 290 289 288 288 289
293 293 293 293 292 292 291 291 291 291 291 291 291 291 292 291 292 294 294 293 292 290 290 291 291 293 293 292 293 292 292 291 289 288 288 289 289 289 289 289 288 287 287
293 293 293 293 293 292 292 292 291 291 291 291 292 292 291 293 292 293 293 293 293 290 290 291 291 292 292 291 291 292 291 290 288 287 288 288 287 287 288 288 289 289 288
293 293 293 292 293 292 292 292 292 292 292 291 291 292 292 293 293 292 291 292 291 290 289 290 290 290 289 289 290 290 289 289 288 288 288 288 288 288 288 288 288 289 289
293 293 293 293 293 293 292 292 292 292 292 292 292 292 292 292 293 293 292 290 290 289 288 288 288 288 288 288 289 289 289 288 288 287 288 288 289 289 289 288 287 288 288
293 293 293 293 293 293 292 292 292 292 292 293 293 293 292 292 294 293 292 291 291 290 288 288 288 287 287 287 287 288 288 288 288 288 287 287 288 289 289 289 289 288 288
292 293 293 293 293 293 292 292 292 292 292 292 293 293 293 293 294 293 292 290 290 288 287 287 287 287 287 287 286 286 287 287 287 287 287 287 287 287 288 290 290 290 289
292 292 293 293 292 292 292 292 292 293 292 292 292 292 292 293 293 292 291 289 289 288 288 287 287 287 287 287 286 286 285 286 286 286 286 287 287 288 288 288 289 289 290
291 292 293 293 292 291 292 292 291 291 291 292 292 291 291 292 292 291 290 290 289 289 288 287 287 287 287 286 286 286 286 285 286 286 286 286 287 287 287 287 287 287 288
291 292 292 293 292 292 292 292 291 291 290 290 290 290 291 291 290 290 289 289 288 288 288 288 288 287 287 287 286 285 285 285 286 286 287 287 287 287 287 287 287 287 288
291 292 292 292 292 292 291 291 291 290 290 290 289 289 291 290 289 288 288 288 288 288 288 288 288 287 287 287 287 286 285 285 286 286 286 286 287 287 287 287 287 286 286
290 291 291 292 292 291 291 291 290 290 289 289 289 289 291 289 288 288 288 287 287 287 287 287 287 287 287 287 287 286 286 286 286 286 286 286 286 286 287 286 286 286 285
290 290 290 291 291 291 290 290 290 289 289 289 289 288 288 288 287 287 287 287 287 287 287 287 287 287 287 287 287 286 286 286 286 286 286 286 286 286 286 286 286 286 285
291 290 290 290 290 290 289 289 289 288 288 287 287 287 287 287 286 286 286 287 287 287 287 287 287 287 287 287 287 286 286 286 286 286 285 285 285 285 286 286 286 285 285
291 291 290 289 289 289 288 287 286 286 286 285 284 284 284 285 285 285 285 286 287 287 287 286 286 286 286 286 286 286 286 286 286 285 285 285 285 286 285 286 285 285 285
291 290 290 288 287 287 287 287 286 286 286 285 284 284 284 284 284 284 285 285 286 286 286 286 286 286 286 286 286 286 286 287 286 285 285 285 285 285 285 285 285 285 285
291 290 289 289 288 288 287 287 286 286 285 285 284 284 284 284 285 285 285 285 285 286 286 286 286 286 286 286 286 286 286 287 285 285 284 285 285 285 285 285 285 285 285
Wind_Speed
10 11 11 12 12 11 13 14 15 18 17 18 22 20 18 15 13 15 18 20 21 22 22 19 18 14 9 9 7 5 3 3 1 3 6 9 8 10 9 7 6 4 5
9 9 10 11 11 10 14 15 15 15 18 17 20 22 17 16 13 13 15 16 17 19 21 19 20 18 11 8 8 7 4 4 3 2 4 6 7 7 8 7 10 10 8
7 8 10 11 11 11 14 14 14 13 14 17 18 21 17 14 12 13 12 15 15 16 17 18 20 20 19 12 11 10 6 5 5 6 4 5 7 7 8 7 7 9 17
6 8 10 11 10 11 13 15 12 13 14 14 17 19 20 14 7 15 14 12 14 14 15 16 15 23 21 11 15 11 6 7 5 4 2 3 3 5 6 6 8 8 11
5 8 10 9 10 10 11 12 12 13 12 14 15 17 20 19 9 14 14 12 13 15 13 14 14 13 17 15 10 10 11 5 5 6 5 2 1 3 5 6 4 11 14
4 7 8 9 8 9 10 11 11 11 12 12 15 14 18 19 13 11 13 13 12 13 14 15 14 12 13 13 13 10 7 5 5 3 4 3 4 4 6 7 11 6 3
3 4 6 6 8 9 10 10 10 11 11 12 13 14 15 13 19 12 12 11 11 12 13 14 16 14 10 9 11 10 9 7 7 4 4 5 6 6 8 10 12 14 11
3 3 4 5 7 8 9 11 10 11 11 11 11 13 14 10 16 12 15 13 11 10 12 14 15 18 17 5 11 7 7 4 4 5 5 6 8 6 8 11 12 16 18
5 3 3 3 5 8 9 10 11 11 11 11 11 12 13 9 13 14 15 15 14 13 12 12 14 16 15 1 12 11 9 7 8 7 6 7 7 4 6 8 9 8 5
6 4 3 2 3 5 7 9 9 10 9 10 11 12 13 13 10 15 15 16 14 15 13 13 11 13 12 12 11 12 9 9 10 10 7 5 6 9 8 9 7 5 7
6 6 6 4 3 3 4 5 6 7 8 9 11 12 12 14 14 12 14 15 13 14 14 15 14 13 12 11 10 12 10 11 10 8 7 6 6 6 6 7 10 10 8
7 7 6 5 4 4 4 5 6 7 8 10 11 13 13 14 15 14 13 13 12 14 14 13 13 12 11 11 11 10 9 10 10 8 9 9 11 12 10 10 11 12 16
8 7 6 6 6 5 5 5 5 7 8 10 12 14 16 15 15 15 14 12 13 13 12 11 12 11 10 10 10 10 9 9 10 11 10 12 13 12 11 11 9 11 13
9 7 7 6 7 7 7 5 6 7 9 9 12 13 15 14 15 15 15 14 14 14 12 11 11 11 11 11 11 10 9 9 9 10 11 11 12 12 12 11 13 13 14
10 8 7 7 7 8 8 7 8 7 9 12 12 10 13 15 15 13 13 12 12 11 11 11 15 17 18 18 17 14 12 11 12 11 11 12 12 12 12 10 12 12 12
12 10 8 7 8 8 9 9 6 7 8 8 8 10 12 12 12 11 12 10 10 11 11 13 15 15 16 18 19 19 17 16 14 14 13 11 12 12 12 11 9 10 12
12 10 8 8 8 9 9 9 11 8 7 7 9 10 9 12 11 11 12 10 10 10 12 13 13 15 16 16 17 17 18 17 14 14 14 13 13 12 12 14 15 13 13
12 10 10 9 9 9 9 9 9 11 13 13 9 10 9 10 10 10 12 11 12 13 13 13 14 14 15 16 18 18 18 18 17 16 14 14 14 13 15 17 18 17 16
13 10 9 9 9 9 10 10 9 9 9 11 12 10 11 11 10 10 11 12 14 15 14 14 13 14 15 16 17 17 17 18 17 16 16 16 16 16 17 17 19 16 17
13 10 9 9 9 9 10 10 10 8 8 9 10 10 12 12 13 13 13 13 14 15 14 14 15 15 15 15 20 19 19 19 19 18 18 18 18 17 18 19 19 18 18
13 12 10 10 10 9 9 9 9 9 8 8 8 8 10 11 10 12 14 15 16 15 15 16 16 15 16 15 18 20 21 20 20 20 20 20 20 20 18 19 19 19 18
13 10 10 9 8 8 7 6 7 6 6 7 8 9 10 10 12 13 15 16 16 15 14 16 16 15 15 14 17 18 19 21 22 23 23 23 21 21 18 19 20 21 20
14 11 9 8 7 6 5 4 4 4 5 7 8 8 9 10 12 14 15 16 16 15 15 15 15 15 15 13 15 15 17 19 21 21 23 23 21 20 18 17 18 19 19
17 13 11 9 8 7 5 4 4 4 6 7 6 6 7 9 11 13 15 16 16 15 15 15 15 16 16 15 16 15 15 17 19 19 18 19 19 18 17 16 17 16 15
17 14 11 9 7 5 3 3 3 3 4 4 5 7 9 9 10 12 13 17 16 17 17 16 16 17 17 16 16 15 16 18 19 19 17 15 15 16 15 15 16 17 16
16 14 12 10 9 7 4 2 1 2 3 4 6 7 7 8 10 11 14 16 16 16 17 17 17 18 17 17 17 17 17 17 19 19 17 16 15 15 15 15 14 15 15
Wind_Direction
11 8 2 4 4 6 9 5 1 7 10 10 11 9 8 6 12 13 26 28 24 22 18 18 10 2 347 360 343 336 326 290 270 305 333 348 2 346 342 318 346 273 316
10 9 6 5 7 7 4 4 3 3 14 10 10 11 5 6 359 357 8 15 19 18 18 19 17 5 3 335 344 337 313 307 285 298 327 10 12 357 339 304 284 282 325
8 11 9 7 11 7 5 4 2 360 2 11 11 13 9 1 2 6 4 13 16 21 22 19 23 13 7 6 333 312 314 292 294 260 315 331 335 353 340 330 317 288 270
9 12 9 5 0 352 357 3 355 355 355 358 7 9 14 359 336 8 4 3 13 19 22 26 32 24 15 22 32 39 14 308 317 310 298 318 343 350 356 345 339 332 309
8 8 10 2 5 352 356 354 357 359 352 357 350 358 2 7 356 10 6 359 356 3 14 22 26 21 23 20 22 17 27 17 312 318 307 283 288 348 347 339 306 319 306
1 4 9 357 1 356 356 353 351 358 7 6 6 351 354 0 4 19 7 5 1 360 356 8 16 16 9 25 29 22 13 29 48 32 15 358 334 342 325 323 342 325 313
349 350 9 2 358 355 355 359 1 5 7 5 360 1 358 359 357 11 359 357 354 354 354 355 358 1 357 20 26 25 33 20 42 38 316 298 295 301 312 319 312 304 291
266 311 353 5 358 1 6 12 17 19 16 11 2 1 3 10 356 6 6 359 355 354 354 353 353 355 345 352 3 28 16 18 21 346 323 303 289 284 313 305 295 290 287
244 282 323 360 8 10 22 25 32 34 29 17 7 6 5 11 2 5 357 359 358 353 349 355 359 1 2 12 5 14 11 4 339 322 298 298 297 295 304 297 315 314 295
253 277 290 306 324 18 27 30 33 36 28 24 23 17 9 8 1 358 359 357 349 352 0 1 359 355 358 355 353 353 344 345 346 333 310 295 289 269 275 284 290 283 296
256 278 281 279 294 318 335 355 9 23 18 19 25 19 13 7 9 355 360 359 0 356 355 357 358 352 353 355 348 354 349 343 332 336 336 321 300 291 287 288 279 256 252
252 267 267 270 287 298 313 321 330 339 349 355 1 7 12 11 12 7 1 2 2 358 357 356 354 352 353 352 353 350 342 334 345 351 353 349 338 323 308 295 284 274 260
242 267 266 285 289 295 306 317 319 327 335 340 345 350 355 6 8 10 4 3 7 359 357 356 359 1 0 358 353 348 341 345 340 328 329 332 333 332 318 321 307 287 278
228 246 268 285 296 300 301 304 312 319 324 328 330 336 345 351 1 2 359 1 2 4 2 10 13 16 16 12 10 5 353 348 342 335 328 330 335 329 327 321 317 319 304
228 234 245 267 286 297 305 303 301 306 313 315 322 320 335 340 350 348 352 353 356 358 359 13 17 15 12 11 8 8 5 354 348 347 340 328 321 333 336 331 319 319 303
226 234 239 249 261 278 293 304 285 295 301 300 310 315 331 333 334 342 348 348 357 0 7 15 8 6 6 3 1 357 1 358 350 340 336 335 330 326 320 330 327 310 299
232 235 244 251 263 273 282 297 309 301 302 305 315 322 325 331 337 339 346 345 353 359 13 9 359 357 356 357 357 357 349 353 349 342 332 329 330 330 322 317 308 299 298
232 245 258 255 263 269 269 283 294 302 313 319 324 330 335 335 339 340 345 345 354 9 5 358 347 347 350 353 352 351 351 351 353 349 344 337 330 326 325 322 317 306 296
232 240 242 258 269 285 282 280 282 289 299 308 322 337 347 348 346 351 355 360 353 360 354 348 344 342 341 345 351 352 352 351 347 347 349 345 341 334 328 326 324 316 311
231 239 250 259 263 270 277 281 288 292 301 311 329 346 352 347 357 360 0 355 353 355 345 341 341 340 342 341 348 352 351 354 352 350 347 345 345 341 335 331 331 324 320
233 239 252 256 263 269 275 287 297 308 313 318 336 357 353 353 2 359 358 356 353 355 342 342 341 341 346 343 347 348 350 350 351 348 345 344 346 341 341 339 335 335 334
221 241 255 255 258 264 281 293 299 314 326 335 343 351 346 354 4 2 358 356 355 354 345 347 345 346 348 344 342 344 345 345 347 345 341 341 340 342 341 340 342 342 343
223 234 247 245 245 242 254 269 292 316 323 326 327 337 343 354 4 4 1 358 357 355 354 354 350 348 348 344 344 344 342 345 343 341 333 333 335 339 343 338 342 342 346
218 228 232 236 240 246 255 280 304 322 336 337 344 346 342 345 358 3 7 2 1 0 359 357 353 350 346 347 348 345 349 352 347 340 336 333 334 339 344 347 350 354 353
216 215 221 222 221 239 252 282 311 355 2 354 354 345 342 341 339 342 349 358 3 3 2 1 359 354 353 353 351 349 350 354 355 347 342 341 342 344 348 354 355 358 3
211 216 214 217 214 225 227 227 310 1 21 11 8 6 2 359 356 352 349 3 6 6 7 6 4 0 359 358 360 356 354 355 355 355 352 348 351 356 356 360 4 7 8